Regional Weather Roundup
Issued by NWS

Home | Current Version | Previous Version | Graphics & Text | Print | Product List | Glossary On
Versions: 1 2 3 4 5 6 7 8 9 10 11 12 13 14 15 16 17 18 19 20 21 22 23 24 25 26 27 28 29 30 31 32 33 34 35 36 37 38 39 40 41 42 43 44 45 46 47 48 49 50
000
ASUS43 KFSD 021710
RWRSD

WEATHER ROUNDUP FOR SOUTH DAKOTA
NATIONAL WEATHER SERVICE SIOUX FALLS SD
1200 PM CDT THU JUL 02 2015

NOTE: "FAIR" INDICATES FEW OR NO CLOUDS BELOW 12,000 FEET WITH NO
SIGNIFICANT WEATHER AND/OR OBSTRUCTIONS TO VISIBILITY.


SDZ001>005-009-010-012>017-021800-
NORTHWEST AND NORTH CENTRAL SOUTH DAKOTA

CITY           SKY/WX    TMP DP  RH WIND       PRES   REMARKS
BUFFALO          N/A     74  56  53 NW20G28   30.03F
FAITH            N/A     73  60  63 N12       30.05S
MOBRIDGE       MOSUNNY   73  67  81 NW10      29.97S
$$

SDZ012>016-024>037-041>051-057-063-072>074-021800-
SOUTHWEST AND SOUTH CENTRAL SOUTH DAKOTA

CITY           SKY/WX    TMP DP  RH WIND       PRES   REMARKS
RAPID CTY ARPT MOSUNNY   76  62  62 N20G28    30.10S
PIERRE         MOSUNNY   72  63  73 N9        29.98F
CUSTER         MOSUNNY   70  49  47 N10G17    30.21S
ELLSWORTH AFB  MOSUNNY   75  62  64 N21       30.09F
PHILIP         PTSUNNY   77  65  66 N7        30.03S
PINE RIDGE     PTSUNNY   75  60  59 N16       30.09S
SPEARFISH      FAIR      72  59  64 NW13G18   30.16F
WINNER         PTSUNNY   72  62  71 N6        29.99S
$$

SDZ004>011-016>023-039-040-021800-
NORTHEAST SOUTH DAKOTA

CITY           SKY/WX    TMP DP  RH WIND       PRES   REMARKS
ABERDEEN       LGT RAIN  61  59  93 SW5       30.01R
WATERTOWN      CLOUDY    69  51  52 S7        30.01R
BROOKINGS      CLOUDY    64  48  55 S6        30.03S
SISSETON         N/A     70  53  54 S8        29.99S
$$

SDZ017-020-022-023-036>040-048>070-021800-
SOUTHEAST SOUTH DAKOTA

CITY           SKY/WX    TMP DP  RH WIND       PRES   REMARKS
SIOUX FALLS    CLOUDY    65  57  75 E9        30.00S
HURON          CLOUDY    65  58  78 CALM      29.99R
MITCHELL       CLOUDY    67  61  81 E7        29.97F
YANKTON        CLOUDY    61  57  88 E9        29.97F
$$

ABBREVIATIONS USED IN REMARKS
   TC - TEMPERATURE IN CELSIUS
  WCI - WIND CHILL INDEX
   HX - HEAT INDEX
  VSB - VISIBILITY




USA.gov is the U.S. government's official web portal to all federal, state and local government web resources and services.